New Philadelphia, OH

8:11 AM EST on January 26, 2015 (GMT -0500)
Akron Fulton International | Change Station
CLOSE
Current Station
Airport
Location: Akron,
Elevation: 1066 ft
Nearby Weather Stations

Elev 1066 ft 41.04 °N, 81.46 °W | Updated 12 minutes ago

Snow
Snow
20 °F
Feels Like 9 °F
N
10
Wind Variable Wind from North

Today
High -- | Low -- °F
--% Chance of Precip.
Yesterday
High -- | Low -- °F
Precip. -- in
7:40 AM 5:36 PM
Waxing Crescent, 43% visible
Pressure 29.77 in
Visibility 1.8 miles
Clouds Overcast 2800 ft
Windchill 9 °F
Dew Point 15 °F
Humidity 81%
Rainfall 0.00 in
Snow Depth Not available.
UV 0 out of 12
Pollen .10 out of 12
Air Quality Not available.
Flu Activity Not available.
SPECI KAKR 261259Z AUTO 01009KT 1 3/4SM -SN OVC028 M07/M09 A2977 RMK AO2 P0000 T10671094 $

More Conditions Fewer Conditions

Pressure 29.77 in
Visibility 1.8 miles
Clouds Overcast 2800 ft
Windchill 9 °F
Dew Point 15 °F
Humidity 81%
Rainfall 0.00 in
Snow Depth Not available.
UV 0 out of 12
Pollen .10 out of 12
Air Quality Not available.
Flu Activity Not available.
SPECI KAKR 261259Z AUTO 01009KT 1 3/4SM -SN OVC028 M07/M09 A2977 RMK AO2 P0000 T10671094 $

More Conditions Fewer Conditions

10-Day Weather Forecast

Almanac

Astronomy

Jan. 26, 2015 Rise Set
Actual Time
Civil Twilight
Nautical Twilight
Astronomical Twilight
Moon
Length of Visible Light
Length of Day
Tomorrow will be .
, % of the Moon is Illuminated

Today's Extremes

State Highs State Lows

Community

WunderPhotos

Upload Photos

1,790,192 photos uploaded!

WunderBlogs® & News

Nearby

Air Quality

  Air Quality AQ Index Pollutant
Not available.

Snow Depth

Station Depth Elevation

Earthquake Activity

City Distance Mag. Time & Date
Minimum magnitude displayed is 2.5.

Coastal Water Temperatures

Place Temperature

Nearby Weather Stations